Regional Weather Roundup
Issued by NWS

Home | Current Version | Previous Version | Graphics & Text | Print | Product List | Glossary On
Versions: 1 2 3 4 5 6 7 8 9 10 11 12 13 14 15 16 17 18 19 20 21 22 23 24 25 26 27 28 29 30 31 32 33 34 35 36 37 38 39 40 41 42 43 44 45 46 47 48 49 50
000
ASUS43 KFSD 231010
RWRSD

WEATHER ROUNDUP FOR SOUTH DAKOTA
NATIONAL WEATHER SERVICE SIOUX FALLS SD
500 AM CDT WED AUG 23 2017

NOTE: "FAIR" INDICATES FEW OR NO CLOUDS BELOW 12,000 FEET WITH NO
SIGNIFICANT WEATHER AND/OR OBSTRUCTIONS TO VISIBILITY.


SDZ001>005-009-010-012>017-231100-
NORTHWEST AND NORTH CENTRAL SOUTH DAKOTA

CITY           SKY/WX    TMP DP  RH WIND       PRES   REMARKS
BUFFALO          N/A     53  48  83 NE10      30.02F
FAITH            N/A     58  51  78 E10       30.06F
MOBRIDGE       CLEAR     57  46  66 E8        30.08F
$$

SDZ012>016-024>037-041>051-057-063-072>074-231100-
SOUTHWEST AND SOUTH CENTRAL SOUTH DAKOTA

CITY           SKY/WX    TMP DP  RH WIND       PRES   REMARKS
RAPID CTY ARPT CLEAR     57  48  72 CALM      30.06F
PIERRE         CLEAR     59  51  75 E12       30.07F
CUSTER         CLEAR     53  46  77 VRB6      30.19F
ELLSWORTH AFB  CLEAR     60  48  64 CALM      30.05F
PHILIP         CLEAR     54  51  90 E7        30.05F
PINE RIDGE     CLEAR     65  51  60 S20G32    30.08S
SPEARFISH      FAIR      55  48  76 SW6       30.09F
WINNER         FAIR      57  53  86 SE7       30.10F
$$

SDZ004>011-016>023-039-040-231100-
NORTHEAST SOUTH DAKOTA

CITY           SKY/WX    TMP DP  RH WIND       PRES   REMARKS
ABERDEEN       CLEAR     44  44 100 S5        30.12F
WATERTOWN      CLEAR     50  49  96 CALM      30.13F
BROOKINGS      CLEAR     51  48  89 CALM      30.15F
SISSETON         N/A     48  46  93 CALM      30.10F
$$

SDZ017-020-022-023-036>040-048>070-231100-
SOUTHEAST SOUTH DAKOTA

CITY           SKY/WX    TMP DP  RH WIND       PRES   REMARKS
SIOUX FALLS    CLEAR     52  52 100 CALM      30.14F
HURON          CLOUDY    53  51  93 E5        30.12F
CHAMBERLAIN    CLEAR     56  55  96 E7        30.11F
MITCHELL       PTCLDY    54  52  93 E3        30.13F
YANKTON        LGT RAIN  54  54 100 CALM      30.14F FOG
$$

ABBREVIATIONS USED IN REMARKS
   TC - TEMPERATURE IN CELSIUS
  WCI - WIND CHILL INDEX
   HX - HEAT INDEX
  VSB - VISIBILITY





USA.gov is the U.S. government's official web portal to all federal, state and local government web resources and services.